Regional Weather Roundup
Issued by NWS Northern Indiana

Home | Current Version | Previous Version | Text Only | Print | Product List | Glossary Off
Versions: 1 2 3 4 5 6 7 8 9 10 11 12 13 14 15 16 17 18 19 20 21 22 23 24 25 26 27 28 29 30 31 32 33 34 35 36 37 38 39 40 41 42 43 44 45 46 47 48 49 50

000
ASUS43 KIWX 212210
RWRIWX

KIWX WEATHER ROUNDUP
NATIONAL WEATHER SERVICE NORTHERN INDIANA
600 PM EDT MON MAY 21 2018

NOTE: "FAIR" INDICATES FEW OR NO CLOUDS BELOW 12,000 FEET WITH NO
SIGNIFICANT WEATHER AND/OR OBSTRUCTIONS TO VISIBILITY.

* THESE STATIONS ARE NOT UNDER NWS QUALITY CONTROL. THEY ALSO MAY NOT
  REPORT WEATHER SUCH AS PRECIPITATION OR FOG.

INZ001>027-212300-
NORTHERN INDIANA

CITY           SKY/WX    TMP DP  RH WIND       PRES   REMARKS
GARY*          CLOUDY    72  64  78 SE6       29.99F FOG
VALPARAISO     CLOUDY    70  64  81 E12       30.00F
LAPORTE*       FAIR      66  62  86 SE12      30.01F
KNOX*          FAIR      68  63  83 SE9       30.01F
SOUTH BEND     PTSUNNY   62  57  83 E12       30.04F
ELKHART*       PTSUNNY   61  57  88 E9        30.04F
GOSHEN         CLOUDY    62  59  90 E8        30.03F
ROCHESTER*     FAIR      66  63  88 SE7       30.03F
WARSAW*        PTSUNNY   61  61 100 E7        30.04F
AUBURN*        FAIR      61  59  94 NE8       30.06F
FORT WAYNE     PTSUNNY   65  62  90 NE13      30.04F
MARION*        FAIR      73  67  82 CALM      30.02F HAZE

$$
INZ028>050-212300-
CENTRAL INDIANA

CITY           SKY/WX    TMP DP  RH WIND       PRES   REMARKS
LAFAYETTE      PTSUNNY   77  65  66 SW7       29.99F
KOKOMO*        PTSUNNY   74  69  85 E7        30.03F
MUNCIE*        PTSUNNY   80  65  59 N7        30.01F
INDIANAPOLIS   CLOUDY    77  68  73 SW8       30.01S

$$
MIZ043>046-050>051-056>058-064>065-071>073-077>080-212300-
SOUTHWEST LOWER MICHIGAN

CITY           SKY/WX    TMP DP  RH WIND       PRES   REMARKS
BATTLE CREEK   LGT RAIN  56  54  93 E12       30.08F
BENTON HARBOR  CLOUDY    60  56  86 E13       30.02F
COLDWATER*     CLOUDY    57  56  97 E8        30.08F
HILLSDALE*     LGT RAIN  55  52  88 E8        30.09F
HOLLAND        LGT RAIN  56  32  40 E15       30.06F
GRAND RAPIDS   LGT RAIN  53  51  93 E16       30.09F
KALAMAZOO      CLOUDY    58  55  90 E8        30.07F
STURGIS*       CLOUDY    58  56  94 E9        30.05F
THREE RIVERS*  PTSUNNY   58  56  93 E9        30.06F

$$
OHZ001>008-015>018-024>025-212300-
NORTHWEST OHIO

CITY           SKY/WX    TMP DP  RH WIND       PRES   REMARKS
DEFIANCE       LGT RAIN  61  57  87 NE12      30.07F
FINDLAY        FAIR      68  60  75 NE13      30.04F
TOLEDO EXPRESS LGT RAIN  58  57  97 E12G18    30.08F
TOLEDO METCALF PTSUNNY   58  52  80 NE14G21   30.10F
LIMA           TSTM      68  66  93 N14       30.04R FOG

$$
AND FOR LAKE MICHIGAN COASTAL AND OPEN LAKE BUOY OBSERVATIONS

STATION/POSITION TEMP    WIND        PRES    VSBY  WAVE
                 AIR SEA DIR/SP/G                  HT/PER
                 (F)     (DEG/KT/KT) (MB)    (MI)  (FT/S)
CALUMET HARBOR    55      30/  4/  5 1015.0F
MICHIGAN CITY     65     110/  9/ 12   N/A
BURNS HARBOR      68      CALM  /  5 1015.9F
SAINT JOSEPH      61     230/  1/  7 1016.3
4 MI NW BRIDGMAN  58 52  130/ 12/ 14 1016.3          1
MICHIGAN CITY     59 54  140/  6/  8   N/A           1/ 3

$$
&&




USA.gov is the U.S. government's official web portal to all federal, state and local government web resources and services.